Location: downtown San Diego
(32.7310°N, 117.1990°W)
Time: 09:01:07
(UTC-07:00)

SPOT 1/Viking Rocket - Pass Details

Date: 14 June 2018
Orbit: 777 x 795 km, 98.6° (Epoch: 16 October)

Event Time Altitude Azimuth Distance (km) Brightness Sun altitude
Exits shadow 22:19:23 60° 120° (ESE) 887 3.5 -23.5°
Maximum altitude 22:20:05 68° 75° (ENE) 836 3.5 -23.6°
Drops below altitude 10° 22:25:10 10° 353° (N) 2,331 6.8 -24.3°
Sets 22:27:30 0° 351° (N) 3,261 7.8 -24.6°
